Location: Pescara
(42.4670°N, 14.2170°E)
Time: 03:21:28
(UTC+02:00)

ISS - Pass Details

Date: 17 May 2021
Orbit: 417 x 422 km, 51.6° (Epoch: 14 June)

Event Time Altitude Azimuth Distance (km) Brightness Sun altitude
Rises 23:40:50 0° 290° (WNW) 2,365 0.6 -25.4°
Reaches altitude 10° 23:43:26 10° 311° (NW) 1,503 -0.2 -25.6°
Maximum altitude 23:45:47 17° 355° (N) 1,132 -0.8 -25.7°
Drops below altitude 10° 23:48:09 10° 39° (NE) 1,506 -0.6 -25.8°
Enters shadow 23:49:58 - 56° (NE) 2,088 0.0 -26.0°
